Location: Ay?beleni
(36.6500°N, 30.3000°E)
Time: 03:23:51
(UTC+00:00)

Cosmos 2098 - Pass Details

Date: 16 October 2021
Orbit: 389 x 1581 km, 82.9° (Epoch: 08 December)

Event Time Altitude Azimuth Distance (km) Brightness Sun altitude
Rises 15:57:24 0° 182° (S) 2,444 8.2 -8.0°
Reaches altitude 10° 15:59:31 10° 180° (S) 1,496 7.1 -8.5°
Maximum altitude 16:02:38 73° 96° (E) 415 4.0 -9.1°
Drops below altitude 10° 16:05:36 10° 10° (N) 1,431 6.8 -9.7°
Sets 16:07:36 0° 9° (N) 2,323 7.9 -10.1°
